Cosmos 1151 Rocket - Orbit

View from above orbital plane
View from above orbital plane
View from above satellite
View from above satellite

Ground track
Ground track

The orbit data is extracted from the following two-line orbital elements,

1 11672U 80005B   13144.20941216  .00000455  00000-0  48329-4 0  7002
2 11672 082.5174 040.0047 0016960 198.5374 307.7811 14.86756628802651
Epoch (UTC): 24 May 2013 05:01:33
Eccentricity: 0.0016960
inclination: 82.5174°
perigee height: 596 km
apogee height: 620 km
right ascension of ascending node: 40.0047°
argument of perigee: 198.5374°
revolutions per day: 14.86756628
mean anomaly at epoch: 307.7811°
orbit number at epoch: 80265

The dashed part of the orbit path shows where the satellite is in the earth's shadow,  

Developed and maintained by Chris Peat, Heavens-Above GmbH. Please read the updated FAQ before sending e-mail. Imprint. DLR